Weather History for Pensacola, FL

Change the Weather History Date:

Friday, April 26, 2013

  Actual Average Record
Temperature  
Mean Temperature 69 °F 69 °F  
Max Temperature 79 °F 78 °F 88 °F (1988)
Min Temperature 58 °F 60 °F 48 °F (1910)
Degree Days  
Heating Degree Days 0 1  
Month to date heating degree days 29 50  
Since 1 July heating degree days 1167 1534  
Cooling Degree Days 4 5  
Month to date cooling degree days 83 80  
Year to date cooling degree days 138 127  
Growing Degree Days 19 (Base 50)    
Moisture  
Dew Point 45 °F    
Average Humidity 52    
Maximum Humidity 78    
Minimum Humidity 25    
Precipitation  
Precipitation 0.00 in 0.14 in 5.86 in (1964)
Month to date precipitation 4.41 3.80  
Year to date precipitation 20.23 19.30  
Sea Level Pressure  
Sea Level Pressure 30.26 in    
Wind  
Wind Speed 6 mph (ESE)    
Max Wind Speed 18 mph    
Max Gust Speed 23 mph    
Visibility 10 miles    
Events      
T = Trace of Precipitation, MM = Missing Value Source: NWS Daily Summary

Daily Weather History Graph

Daily Weather History Graph

Search for Another Location

Airport:

Trip Planner

Search our weather history database for the weather conditions in past years. The results will help you decide how hot, cold, wet, or windy it might be!

Date:

Astronomy

Apr. 26, 2013 Rise Set
Actual Time 6:09 AM CDT 7:23 PM CDT
Civil Twilight 5:44 AM CDT 7:49 PM CDT
Nautical Twilight 5:14 AM CDT 8:19 PM CDT
Astronomical Twilight 4:43 AM CDT 8:50 PM CDT
Moon 8:40 PM CDT (4/26) 6:40 AM CDT (4/26)
Length of Visible Light 14h 04m
Length of Day
13h 14m
Full, 99% of the Moon is Illuminated
Apr 26
Full
May 2
Last Quarter
May 9
New
May 17
First Quarter
May 24
Full

Hourly Weather History & Observations

Time (CDT) Temp. Dew Point Humidity Pressure Visibility Wind Dir Wind Speed Gust Speed Precip Events Conditions
12:53 AM 64.0 °F 41.0 °F 43% 30.26 in 10.0 mi North 5.8 mph - N/A   Clear
1:53 AM 63.0 °F 39.0 °F 41% 30.24 in 10.0 mi NNE 8.1 mph - N/A   Clear
2:53 AM 62.1 °F 37.9 °F 41% 30.23 in 10.0 mi NE 8.1 mph 16.1 mph N/A   Clear
3:53 AM 61.0 °F 37.9 °F 42% 30.24 in 10.0 mi NE 6.9 mph - N/A   Clear
4:53 AM 59.0 °F 39.0 °F 48% 30.24 in 10.0 mi NE 5.8 mph - N/A   Clear
5:53 AM 59.0 °F 39.0 °F 48% 30.25 in 10.0 mi NE 5.8 mph - N/A   Clear
6:53 AM 59.0 °F 37.9 °F 46% 30.28 in 10.0 mi NE 4.6 mph - N/A   Clear
7:53 AM 61.0 °F 39.9 °F 46% 30.29 in 10.0 mi NE 5.8 mph - N/A   Clear
8:53 AM 66.0 °F 41.0 °F 40% 30.30 in 10.0 mi ENE 5.8 mph - N/A   Clear
9:53 AM 70.0 °F 43.0 °F 38% 30.30 in 10.0 mi East 6.9 mph - N/A   Clear
10:53 AM 73.0 °F 39.9 °F 30% 30.31 in 10.0 mi SE 5.8 mph - N/A   Clear
11:53 AM 75.9 °F 43.0 °F 31% 30.32 in 10.0 mi Variable 3.5 mph - N/A   Mostly Cloudy
12:53 PM 78.1 °F 39.9 °F 25% 30.30 in 10.0 mi SE 9.2 mph - N/A   Clear
1:53 PM 79.0 °F 39.9 °F 25% 30.28 in 10.0 mi SE 10.4 mph - N/A   Clear
2:53 PM 78.1 °F 45.0 °F 31% 30.25 in 10.0 mi SSE 8.1 mph - N/A   Clear
3:53 PM 78.1 °F 48.0 °F 35% 30.24 in 10.0 mi South 9.2 mph - N/A   Clear
4:53 PM 77.0 °F 48.0 °F 36% 30.24 in 10.0 mi SSE 10.4 mph - N/A   Clear
5:53 PM 75.0 °F 51.1 °F 43% 30.24 in 10.0 mi South 10.4 mph - N/A   Clear
6:53 PM 72.0 °F 53.1 °F 51% 30.24 in 10.0 mi South 5.8 mph - N/A   Clear
7:53 PM 69.1 °F 54.0 °F 58% 30.24 in 10.0 mi Calm Calm - N/A   Clear
8:53 PM 68.0 °F 55.0 °F 63% 30.23 in 10.0 mi SW 3.5 mph - N/A   Clear
9:53 PM 66.9 °F 57.0 °F 70% 30.24 in 10.0 mi WSW 3.5 mph - N/A   Clear
10:53 PM 66.0 °F 57.0 °F 73% 30.24 in 10.0 mi Calm Calm - N/A   Clear
11:53 PM 64.0 °F 57.9 °F 80% 30.24 in 10.0 mi Calm Calm - N/A   Clear